Hourly Weather Roundup
Issued by NWS Central Illinois

Home | Current Version | Previous Version | Text Only | Print | Product List | Glossary On
Versions: 1 2 3 4 5 6 7 8 9 10 11 12 13 14 15 16 17 18 19 20 21 22 23 24 25 26 27 28 29 30 31 32 33 34 35 36 37 38 39 40 41 42 43 44 45 46 47 48 49 50
000
NZUS43 KILX 300810
HWRILX

Area Weather Roundup
National Weather Service Lincoln IL
300 AM CDT TUE MAY 30 2017

NOTE:  "FAIR" indicates few or no clouds below 12,000 feet, with
       no sigificant weather and/or obstructions to visibility.


CITY           SKY/WX    TMP DP  RH WIND       PRES   REMARKS
Bloomington    CLEAR     58  44  60 W6        29.98S
Champaign      CLEAR     57  46  66 W7        29.97R
Danville       CLEAR     56  49  79 CALM      29.93S
Decatur        MOCLDY    58  50  75 SW6       29.98S
Effingham      PTCLDY    55  55 100 CALM      30.01R
Flora          CLOUDY    59  57  92 S5        30.00S
Galesburg      CLEAR     56  46  69 W5          N/A
Jacksonville   MOCLDY    57  50  78 CALM      29.99S
Lacon          CLEAR     53  48  81 CALM      29.95S
Lawrenceville  CLEAR     58  55  90 S5        30.00S
Litchfield     MOCLDY    58  54  88 W3        30.01R
$$


CITY           SKY/WX    TMP DP  RH WIND       PRES   REMARKS
Lincoln        CLEAR     63  45  51 CALM      29.97S
Macomb         CLEAR     54  46  76 W7        30.01R
Mattoon        PTCLDY    62  51  67 W5        29.98S
Mt Carmel AP   PTCLDY    59  54  84 CALM      30.00S
Olney-Noble AP CLOUDY    58  58 100 CALM      30.01R
Paris AP       CLEAR     57  52  84 SW6       29.99R
Peoria         CLEAR     54  48  80 CALM      29.97S
Pontiac        PTCLDY    57  49  76 W7        29.96S
Rantoul        CLEAR     63  46  53 W7        29.96S
Robinson       CLEAR     56  54  91 CALM      30.00S
Springfield    MOCLDY    59  51  75 W5        29.99R
Taylorville    CLOUDY    58  53  84 SW3       29.99F
$$

...REGIONAL REPORTS...


CITY           SKY/WX    TMP DP  RH WIND       PRES   REMARKS
Chicago O`Hare PTCLDY    56  47  71 W8        29.90S
Kankakee       CLEAR     52  46  81 CALM      29.94S
Moline           N/A     55  45  68 W6        29.95S
Mount Sterling MOCLDY    59  45  59 W5        30.00S
Mount Vernon   FOG       54  54 100 CALM      30.01S VSB 1/2
Pittsfield     MOCLDY    59  53  78 W3        30.02R
Quincy         MOCLDY    59  46  62 W6        30.01R
Rockford       CLEAR     54  47  77 W7        29.93S
$$


CITY           SKY/WX    TMP DP  RH WIND       PRES   REMARKS
Burlington     CLEAR     56  45  66 W7        29.99R
Cedar Rapids   CLEAR     50  47  89 W7        29.96F
Des Moines     PTCLDY    54  45  71 SW5       30.01S
Kirksville     CLEAR     50  32  50 W3        30.05R
Ottumwa        CLEAR     51  46  83 W6        30.01S
St Louis       MOCLDY    65  56  72 W3        30.02R
$$


CITY           SKY/WX    TMP DP  RH WIND       PRES   REMARKS
Terre Haute    CLEAR     57  52  83 S5        29.97S
Evansville     CLEAR     60  58  92 CALM      30.01F
Indianapolis   PTCLDY    58  54  86 SW6       29.96S
Lafayette      PTCLDY    53  53 100 CALM      29.94S FOG
Madison        CLEAR     53  48  83 VRB3      29.88R
Milwaukee      CLEAR     55  49  80 W8        29.87S
$$






USA.gov is the U.S. government's official web portal to all federal, state and local government web resources and services.